Location: Mount Kobau Star Party
(49.1167°N, 119.7333°W)
Time: 12:35:24
(UTC-07:00)

ARIANE 6 FM1 Upper Stage - Pass Details

Date: 16 April 2026
Orbit: 526 x 601 km, 62.0° (Epoch: 18 May)

Event Time Altitude Azimuth Distance (km) Brightness Sun altitude
Rises 01:53:13 0° 317° (NW) 2,673 6.5 -29.5°
Reaches altitude 10° 01:55:29 10° 323° (NW) 1,776 5.6 -29.4°
Enters shadow 01:56:53 20° 331° (NNW) 1,251 4.8 -29.3°
